Regional Weather Roundup
Issued by NWS

Home | Current Version | Previous Version | Graphics & Text | Print | Product List | Glossary On
Versions: 1 2 3 4 5 6 7 8 9 10 11 12 13 14 15 16 17 18 19 20 21 22 23 24 25 26 27 28 29 30 31 32 33 34 35 36 37 38 39 40 41 42 43 44 45 46 47 48 49 50
832
ASUS45 KBOU 080807
RWRCO

WEATHER ROUNDUP FOR COLORADO
NATIONAL WEATHER SERVICE DENVER/BOULDER CO
100 AM MST MON FEB 08 2016

NOTE: "FAIR" INDICATES FEW OR NO CLOUDS BELOW 12000 FEET WITH NO
SIGNIFICANT WEATHER AND/OR OBSTRUCTIONS TO VISIBILITY.

COZ001>005-013-030-031-080900-
...NORTHWEST COLORADO...

CITY           SKY/WX    TMP DP  RH WIND       PRES   REMARKS
CRAIG          CLOUDY     0  -4  83 CALM      30.55R
HAYDEN         CLOUDY    16   9  73 SE5       30.52R WCI   9
MEEKER         CLOUDY    13   7  77 NE5       30.54R WCI   5
MOUNT WERNER   NOT AVBL
STEAMBOAT SPGS CLOUDY    17  13  84 CALM      30.52S
WALDEN         CLOUDY    25  14  63 S6        30.44S WCI  18
$$

COZ006>008-011-080900-
...WEST CENTRAL VALLEYS...

CITY           SKY/WX    TMP DP  RH WIND       PRES   REMARKS
GRAND JUNCTION CLOUDY    16  14  92 E3        30.54F
MONTROSE       CLOUDY    16  10  77 S8        30.56S WCI   5
EAGLE          CLOUDY    14  12  92 CALM      30.56S
RIFLE          CLOUDY    11   6  81 CALM      30.56S
DELTA          CLOUDY    23  19  85 CALM      30.56S
NUCLA          CLOUDY    21  18  86 E8        30.53F WCI  12
$$

COZ017>023-064>068-080900-
...SOUTHWEST COLORADO...

CITY           SKY/WX    TMP DP  RH WIND       PRES   REMARKS
DURANGO        CLOUDY    11   8  88 N3        30.42S
CORTEZ         CLOUDY    22  14  71 E5        30.43R WCI  16
PAGOSA SPRINGS CLOUDY    15  13  95 CALM      30.42S
TELLURIDE      NOT AVBL
WOLF CREEK PAS CLOUDY    23   1  39 NE23G31   30.48F WCI   7
$$

COZ009-010-012-014-032>034-037-058>063-080900-
...CENTRAL COLORADO...

CITY           SKY/WX    TMP DP  RH WIND       PRES   REMARKS
ASPEN          CLOUDY    14   7  73 S8        30.50F WCI   3
BUENA VISTA    CLOUDY    31  11  44 N24G35    30.33F WCI  17
COPPER MTN     CLOUDY    18   9  68 W8G17     30.46S WCI   7
BERTHOUD PASS  LGT SNOW   9   0  66 NW40G51   30.34F WCI -17
COTTONWOOD PAS CLOUDY    32   7  34 SE10G21   30.35F WCI  24
GUNNISON       CLOUDY    -8 -29  34 CALM      30.54F
KREMMLING      CLOUDY    19  12  73 N3        30.50R
LEADVILLE      CLOUDY    11   4  73 NE12      30.45F WCI  -3
MONARCH PASS   CLOUDY    12   5  73 MISG      30.52F
SALIDA         NOT AVBL
SUNLIGHT       CLOUDY    21  14  73 W7          N/A  WCI  13
WILKERSON PASS CLOUDY    21   9  58 N20G45    30.33R WCI   6
$$

COZ069>075-080900-
...SAN LUIS VALLEY/SANGRE DE CRISTO MOUNTAINS...

CITY           SKY/WX    TMP DP  RH WIND       PRES   REMARKS
ALAMOSA        CLOUDY    14   8  77 S8        30.40S WCI   3
LA VETA PASS   CLOUDY    23   9  54 MISG      30.36F
SAGUACHE       CLOUDY    28  12  50 N7        30.41F WCI  21
$$

COZ035-036-038>040-080900-
...NORTHERN COLORADO FRONT RANGE...

CITY           SKY/WX    TMP DP  RH WIND       PRES   REMARKS
DENVER INTL AP CLOUDY    21  13  71 S13       30.36F WCI   9
DMNS CITY PARK   N/A     25  15  65 SE10      30.37F WCI  15
AURORA         MOCLDY    21  14  73 SE13      30.36F WCI   9
FRONT RANGE AP NOT AVBL
ERIE MUNI ARPT CLOUDY    27  18  68 S6        30.38S WCI  20
BOULDER MUN AP CLOUDY    27  19  74 SE3       30.37S
CENTENNIAL     CLOUDY    22  14  71 S12       30.36F WCI  10
BROOMFIELD     CLOUDY    27  19  74 S12       30.35F WCI  16
FORT COLLINS   CLOUDY    19  14  79 SW6       30.39F WCI  11
LONGMONT       CLOUDY    27  20  76 CALM      30.40F
$$

COZ041-046-047-076>085-087-088-080900-
...PIKES PEAK/PALMER DIVIDE AND SOUTHERN FOOTHILLS...

CITY           SKY/WX    TMP DP  RH WIND       PRES   REMARKS
COLO. SPRINGS  CLOUDY    23  19  85 CALM      30.40S
A. F. ACADEMY  CLOUDY    22  19  90 S5        30.36F WCI  15
SCHRIEVER AFB  NOT AVBL
ELLICOTT       NOT AVBL
FALCON         CLOUDY    21  20  97 CALM      30.37F
FORT CARSON    CLOUDY    24  21  86 SW2       30.39S
LIMON          CLOUDY    17   9  70 NW10      30.36F WCI   5
MONUMENT HILL  CLOUDY    18  16  93 S10       30.35F WCI   6
TRINIDAD       CLOUDY    23  19  85 CALM      30.40S
$$

COZ042>045-048>051-090-091-080900-
...NORTHEAST COLORADO...

CITY           SKY/WX    TMP DP  RH WIND       PRES   REMARKS
GREELEY ARPT   CLOUDY    12   9  85 NW7       30.40F WCI   2
AKRON          CLOUDY    22  11  62 NW22      30.34F WCI   6
BURLINGTON     CLOUDY    26  13  57 NW25      30.34F WCI  11
WRAY           CLEAR     28  13  53 NW24G32   30.33F WCI  13
STERLING       CLOUDY    27  14  59 N9        30.35S WCI  17
HOLYOKE        CLEAR     30  12  47 NW23G33   30.31F WCI  17
FORT MORGAN    CLOUDY    17  10  73 W6        30.39S WCI   9
$$

COZ086-089-092>099-080900-
...SOUTHEAST COLORADO...

CITY           SKY/WX    TMP DP  RH WIND       PRES   REMARKS
PUEBLO         CLOUDY    30  21  69 CALM      30.44S
LA JUNTA       CLOUDY    27  21  78 W7        30.44S WCI  19
LAMAR          CLEAR     28  15  58 W13       30.41S WCI  17
SPRINGFIELD      N/A     24  17  74 NW10      30.40F WCI  14
$$




USA.gov is the U.S. government's official web portal to all federal, state and local government web resources and services.